Torna al catalogo

SOLRAD 11A

AttivoScienzaMEO
NORAD 8748·PAYLOAD·🇺🇸 United States

Lanciato Mar 15, 1976 da Cape Canaveral Space Force Station

Loading…

Prossimi Passaggi (prossime 24 ore)

TLE

AggiornatoSource: Space-Track

Epoca: Sep 18, 2026, 07:30 UTC

1 08748U 76023C   26261.31275813 -.00000582  00000-0  00000-0 0  9998
2 08748  14.7052 358.9412 0065199 212.3796 345.1516  0.19680042  5640

Traccia SOLRAD 11A in tempo reale con AllMySat

Download on the App Store